TimeMST,TemperatureF,Dew PointF,Humidity,Sea Level PressureIn,VisibilityMPH,Wind Direction,Wind SpeedMPH,Gust SpeedMPH,PrecipitationIn,Events,Conditions,WindDirDegrees,DateUTC
12:53 AM,26.1,10.9,53,30.04,10.0,West,11.5,-,N/A,,Mostly Cloudy,280,2014-01-07 07:53:00
1:53 AM,28.0,12.0,51,30.04,10.0,West,13.8,-,N/A,,Mostly Cloudy,280,2014-01-07 08:53:00
2:53 AM,28.0,15.1,58,30.05,10.0,West,10.4,-,N/A,,Overcast,270,2014-01-07 09:53:00
3:53 AM,27.0,14.0,58,30.05,10.0,Calm,Calm,-,N/A,,Mostly Cloudy,0,2014-01-07 10:53:00
4:53 AM,28.0,15.1,58,30.06,10.0,West,9.2,-,N/A,,Overcast,280,2014-01-07 11:53:00
5:53 AM,28.9,16.0,58,30.04,10.0,West,10.4,-,N/A,,Overcast,270,2014-01-07 12:53:00
6:53 AM,30.0,17.1,59,30.03,10.0,WNW,11.5,-,N/A,,Overcast,300,2014-01-07 13:53:00
7:53 AM,30.0,23.0,75,30.04,10.0,NW,11.5,-,N/A,,Overcast,310,2014-01-07 14:53:00
8:53 AM,30.0,24.1,79,30.05,10.0,West,12.7,-,N/A,,Overcast,270,2014-01-07 15:53:00
9:53 AM,30.9,24.1,76,30.06,10.0,WNW,8.1,-,N/A,,Overcast,290,2014-01-07 16:53:00
10:53 AM,30.9,19.9,64,30.06,10.0,West,6.9,-,N/A,,Overcast,270,2014-01-07 17:53:00
11:53 AM,32.0,21.9,66,30.02,10.0,WNW,6.9,-,N/A,,Overcast,290,2014-01-07 18:53:00
12:53 PM,32.0,23.0,69,30.01,10.0,West,6.9,-,N/A,,Overcast,280,2014-01-07 19:53:00
1:53 PM,32.0,23.0,69,30.01,10.0,West,6.9,-,N/A,,Overcast,280,2014-01-07 20:53:00
2:53 PM,30.9,26.1,82,30.03,9.0,West,6.9,-,N/A,,Overcast,270,2014-01-07 21:53:00
3:12 PM,30.2,26.6,86,29.95,7.0,West,5.8,-,N/A,,Overcast,280,2014-01-07 22:12:00
3:37 PM,30.2,26.6,86,29.95,2.5,West,4.6,-,N/A,,Overcast,280,2014-01-07 22:37:00
3:44 PM,30.2,26.6,86,29.95,4.0,West,5.8,-,N/A,,Overcast,280,2014-01-07 22:44:00
3:53 PM,30.0,27.0,88,30.05,4.0,West,4.6,-,0.01,Snow,Light Snow,260,2014-01-07 22:53:00
4:04 PM,30.2,26.6,86,29.95,2.0,West,3.5,-,0.00,Snow,Light Snow,260,2014-01-07 23:04:00
4:21 PM,30.2,26.6,86,29.96,4.0,WSW,4.6,-,0.00,,Overcast,250,2014-01-07 23:21:00
4:53 PM,30.0,27.0,88,30.05,4.0,West,6.9,-,0.00,Snow,Light Snow,260,2014-01-07 23:53:00
5:28 PM,28.4,26.6,93,29.97,5.0,WSW,3.5,-,0.00,,Overcast,240,2014-01-08 00:28:00
5:53 PM,28.0,25.0,88,30.06,5.0,WSW,3.5,-,0.00,Snow,Light Snow,250,2014-01-08 00:53:00
6:09 PM,28.4,26.6,93,29.97,3.0,Calm,Calm,-,0.01,Snow,Light Snow,0,2014-01-08 01:09:00
6:24 PM,28.4,26.6,93,29.97,5.0,SSW,4.6,-,0.01,Snow,Light Snow,200,2014-01-08 01:24:00
6:53 PM,28.0,26.1,92,30.06,3.0,SSW,3.5,-,0.01,Snow,Light Snow,200,2014-01-08 01:53:00
7:42 PM,28.4,26.6,93,29.97,8.0,SSW,3.5,-,0.00,Snow,Light Snow,200,2014-01-08 02:42:00
7:53 PM,28.0,26.1,92,30.06,9.0,SW,4.6,-,0.00,,Overcast,220,2014-01-08 02:53:00
8:33 PM,28.4,26.6,93,29.98,10.0,West,8.1,-,N/A,,Overcast,260,2014-01-08 03:33:00
8:53 PM,28.9,26.1,89,30.06,10.0,West,5.8,-,N/A,,Overcast,270,2014-01-08 03:53:00
9:06 PM,28.4,26.6,93,29.97,3.0,West,5.8,-,0.00,Snow,Light Snow,260,2014-01-08 04:06:00
9:53 PM,28.0,25.0,88,30.06,10.0,WSW,8.1,-,0.00,,Overcast,250,2014-01-08 04:53:00
10:53 PM,28.9,25.0,85,30.06,10.0,WSW,9.2,-,N/A,,Overcast,250,2014-01-08 05:53:00
11:53 PM,28.9,26.1,89,30.04,10.0,WSW,11.5,-,N/A,,Overcast,250,2014-01-08 06:53:00